www.pogodaiklimat.ru

Погода и климат >> Архив погоды >> Сербия >> Vrsac


ПОГОДА в Vrsac

  • Прогноз погоды в Vrsac
  • Монитор погоды в Vrsac
  • Климат города

АРХИВ ПОГОДЫ в Vrsac

Время (UTC), дата Ветер
(напр.,м/с)
 
Видим.   Явления Облачность Т
(С)
Тd
(С)
f
(%)
Тe
(С)
Тes
(С)
Комфортность P
(гПа)
Po
(гПа)
Тmin
(С)
Tmax
(С)
R
(мм)
R24
(мм)
S
(см)
10 17.04 ЮЗ 3 15 км 9/5 1200 м
[Sc Ac As]
+18.9 +7.7 48 +20 +22 1019.3 1009.3
11 17.04 ЮЗ 1 20 км 9/5 1200 м
[Sc Ac As]
+18.8 +9.3 54 +20 +24 1019.8 1009.7
12 17.04 З 1 20 км 9/4 1500 м
[Sc As op]
+18.8 +8.9 53 +20 +24 1020.0 1010.0
13 17.04 С 1 20 км 9/4 1500 м
[Sc As op]
+19.2 +8.4 50 +21 +24 комфорт 1019.9 1010.0
14 17.04 штиль 0 20 км 9/6 1500 м
[Sc As op]
+19.0 +8.3 50 +20 +21 1020.2 1010.2
15 17.04 штиль 0 20 км 9/9 1500 м
[Sc]
+19.0 +9.1 53 +20 +20 1020.3 1010.3
16 17.04 штиль 0 20 км 9/9 1500 м
[Sc]
+18.4 +10.9 62 +19 +19 1020.4 1010.4
17 17.04 штиль 0 20 км 10/6 1500 м
[Sc As op]
+17.5 +11.6 68 +18 +18 1020.6 1010.6
18 17.04 С 3 6000 м ливневой дождь 10/8 900 м
[Cu Sc As op]
+15.3 +13.9 91 +15 +15 1021.7 1011.5 +19.9 0.3
19 17.04 З 1 7000 м слабый дождь 10/8 1200 м
[Sc As op]
+14.7 +14.2 97 +15 +15 1022.4 1012.1
20 17.04 З 1 6000 м ливневой дождь 10/8 1000 м
[Cu Sc As op]
+14.6 +14.3 98 +15 +15 1022.8 1012.6
21 17.04 ЮЗ 1 3000 м дождь {ливн. осадки} 10/8 300 м
[Frnb As op]
+14.4 +14.1 98 +15 +15 1022.9 1012.7
22 17.04 Ю 1 5000 м слабый дождь 10/8 300 м
[Frnb As op]
+14.2 +13.9 98 +14 +14 1023.2 1012.8
23 17.04 З 1 4000 м слабый дождь 10/8 300 м
[Frnb As op]
+14.3 +14.1 99 +15 +15 1023.3 1013.0
00 18.04 З 1 5000 м слабый дождь {ливн. осадки} 10/8 180 м
[Frnb As op]
+14.5 +13.9 96 +15 +15 1023.3 1013.0 7
01 18.04 Ю 1 6000 м слабый дождь 10/8 180 м
[Frnb As op]
+14.4 +13.9 97 +15 +15 1023.2 1012.9
02 18.04 З 1 6000 м в посл. час дождь 10/8 180 м
[Frnb As op]
+14.4 +14.0 97 +15 +15 1023.4 1013.1
03 18.04 С 1 7000 м {дождь} 10/6 300 м
[St As op]
+14.2 +13.9 98 +14 +14 1023.5 1013.2
04 18.04 штиль 0 3000 м дымка 9/8 90 м
[St Ac As]
+13.8 +13.5 98 +13 +13 1024.0 1013.6
05 18.04 С 1 3000 м дымка 10/8 180 м
[St Ac As]
+14.1 +13.8 98 +14 +14 1024.6 1014.3
06 18.04 СВ 1 2000 м дымка {дождь} 10/8 90 м
[St As op]
+14.2 +13.7 97 +14 +15 1025.4 1015.0 +13.7 8
07 18.04 СВ 1 6000 м дымка 10/8 180 м
[St As op]
+15.4 +14.1 92 +16 +16 1025.7 1015.4
08 18.04 штиль 0 8000 м дымка 6/6 480 м
[St]
+17.0 +14.4 85 +17 +23 1025.8 1015.6
09 18.04 штиль 0 10 км 8/8 480 м
[St]
+17.5 +14.1 80 +17 +21 1026.4 1016.2
10 18.04 З 1 10 км 8/8 480 м
[St]
+17.9 +14.7 82 +19 +23 1026.6 1016.4
11 18.04 З 3 10 км 8/8 480 м
[St]
+17.8 +14.8 83 +18 +20 1026.7 1016.5
12 18.04 З 2 10 км 8/8 480 м
[St]
+18.5 +14.4 77 +20 +22 1026.7 1016.5
13 18.04 З 2 10 км 8/8 600 м
[St]
+18.9 +14.3 75 +21 +23 комфорт 1026.6 1016.4
14 18.04 СЗ 2 10 км 8/8 800 м
[St]
+18.5 +14.1 76 +20 +21 1026.3 1016.1
15 18.04 В 1 10 км 8/8 900 м
[Cu Sc]
+19.1 +14.1 73 +21 +22 комфорт 1026.5 1016.3
16 18.04 В 2 6000 м дождь 10/10 800 м
[Cu Sc]
+17.5 +15.7 89 +18 +18 1026.8 1016.6
17 18.04 Ю 2 10 км в посл. час дождь 9/9 900 м
[Cu Sc]
+16.6 +15.1 91 +17 +17 1026.7 1016.5
18 18.04 Ю 4 10 км слабый дождь 10/6 1000 м
[Sc As op]
+16.5 +15.2 92 +16 +16 1027.1 1017.0 +19.4 0.3
19 18.04 Ю 1 10 км в посл. час дождь 9/6 1000 м
[Sc As op]
+16.5 +15.2 92 +17 +17 1027.4 1017.3
20 18.04 Ю 1 10 км 8/8 1200 м
[Sc]
+15.7 +14.3 91 +16 +16 1027.3 1017.2
21 18.04 ЮЗ 1 10 км {дождь} 5/5 1500 м
[Sc]
+15.2 +14.2 94 +16 +16 1027.4 1017.3
22 18.04 ЮЗ 2 10 км 6/4 1000 м
[Sc Ac trans]
+14.4 +13.1 92 +14 +14 1027.7 1017.6
23 18.04 ЮЗ 1 8000 м дымка 4/0
[Ac trans]
+13.4 +12.7 96 +13 +13 1027.5 1017.3
00 19.04 штиль 0 4000 м дымка {дождь} 4/0
[Ac trans]
+12.4 +11.8 96 +12 +12 1027.5 1017.1 0.0
01 19.04 З 1 3000 м дымка 4/0
[Ac trans]
+11.6 +11.4 99 +11 +11 1027.2 1016.7
02 19.04 штиль 0 200 м туман 4/0
[Ac trans]
+10.7 +10.5 99 +10 +10 1027.2 1016.6
03 19.04 С 1 200 м туман 4/0
[Ac trans]
+10.7 +10.5 99 +10 +10 1027.3 1016.8
04 19.04 штиль 0 300 м туман ясно +11.1 +10.9 99 +10 +10 1027.1 1016.8
05 19.04 штиль 0 100 м туман ясно +11.4 +11.2 99 +11 +12 1027.2 1016.9
06 19.04 штиль 0 400 м туман ясно +12.3 +12.1 99 +12 +17 1027.3 1016.9 +9.3 0.0
07 19.04 СВ 1 1000 м в посл. час туман 10/10 90 м
[St]
+12.9 +12.8 99 +13 +13 1027.7 1017.3
08 19.04 штиль 0 4000 м дымка 8/8 90 м
[St]
+15.6 +15.2 97 +15 +18 1027.4 1017.1
09 19.04 С 1 7000 м дымка {туман} 6/6 300 м
[St]
+16.9 +14.1 84 +18 +24 1027.6 1017.3
10 19.04 С 1 10 км 6/6 480 м
[St]
+18.3 +14.3 77 +20 +27 1027.2 1017.0
11 19.04 С 2 15 км 3/3 800 м
[Cu hum]
+19.8 +14.2 70 +22 +33 комфорт 1026.6 1016.5
12 19.04 С 3 15 км {туман} 1/1 900 м
[Cu hum]
+21.3 +11.8 55 +23 +34 комфорт 1025.7 1015.6
13 19.04 С 6 20 км ясно +22.6 +8.9 42 +24 +28 комфорт 1024.7 1014.6
14 19.04 С 5 20 км 1/0
[Ci fib]
+22.7 +9.1 42 +24 +28 комфорт 1024.1 1014.0
15 19.04 С 8 20 км 1/0
[Ci fib]
+22.7 +8.7 41 +24 +25 комфорт 1023.5 1013.4
16 19.04 С 6 20 км 1/0
[Ci fib]
+22.0 +9.8 46 +24 +24 комфорт 1023.3 1013.2
17 19.04 С 4 20 км 3/0
[Ci fib]
+20.0 +10.4 54 +21 +22 комфорт 1023.0 1012.9
18 19.04 СЗ 2 20 км 3/0
[Ci fib]
+16.8 +10.3 65 +17 +17 1023.2 1013.0 +23.1
19 19.04 штиль 0 20 км 3/0
[Ci fib]
+15.1 +10.3 73 +15 +15 1023.3 1013.0
20 19.04 СВ 1 20 км ясно +14.7 +9.9 73 +15 +15 1023.0 1012.7
21 19.04 СВ 1 20 км ясно +12.4 +9.2 81 +12 +12 1022.8 1012.4
22 19.04 СВ 1 20 км ясно +11.4 +8.3 81 +11 +11 1022.6 1012.2
23 19.04 СВ 1 20 км ясно +11.2 +8.5 83 +11 +11 1022.2 1011.8
00 20.04 штиль 0 20 км ясно +11.3 +8.9 85 +11 +11 1022.0 1011.6
01 20.04 С 1 20 км ясно +11.7 +8.2 79 +12 +12 1021.7 1011.3
02 20.04 С 1 20 км ясно +10.4 +8.0 85 +10 +10 1021.5 1011.1
03 20.04 СВ 4 20 км ясно +10.6 +7.5 81 +8 +8 1021.4 1011.0
04 20.04 СВ 4 20 км 3/0
[Ci fib]
+10.3 +8.0 86 +8 +8 1021.6 1011.2
05 20.04 СВ 3 20 км 3/0
[Ci fib]
+10.8 +8.4 85 +9 +10 1022.0 1011.6
06 20.04 СВ 5 20 км 3/0
[Ci fib]
+13.8 +9.7 76 +12 +14 1022.1 1011.8 +10.0
07 20.04 С 6 20 км 3/0
[Ci fib]
+15.8 +9.3 65 +14 +17 1022.1 1011.8
08 20.04 С 7 20 км 3/0
[Ci fib]
+17.7 +7.4 51 +17 +20 1022.2 1012.0
09 20.04 С 7
{11}
20 км 3/0
[Ci fib]
+18.4 +7.3 48 +18 +22 1022.4 1012.2
10 20.04 С 5 20 км 3/1 1000 м
[Cu hum Ci fib]
+19.0 +6.6 44 +19 +26 1022.5 1012.3
11 20.04 С 6 20 км 4/3 1000 м
[Cu hum Ci fib]
+20.2 +8.6 47 +21 +25 комфорт 1022.1 1012.0
12 20.04 С 6
{11}
20 км 4/1 1000 м
[Cu hum Ci fib]
+20.1 +7.2 43 +21 +25 комфорт 1022.0 1011.9
13 20.04 С 6 20 км 1/0
[Ci fib]
+20.7 +7.4 42 +22 +26 комфорт 1021.4 1011.3
14 20.04 С 6 20 км 1/0
[Ci fib]
+21.0 +7.4 41 +22 +25 комфорт 1021.1 1011.1
15 20.04 С 5 20 км ясно +20.7 +7.1 41 +22 +24 комфорт 1021.1 1011.0
16 20.04 С 5 20 км ясно +19.8 +7.2 44 +20 +21 1021.1 1011.0
17 20.04 С 3 20 км ясно +18.1 +7.7 51 +18 +18 1021.2 1011.0
18 20.04 СВ 2 15 км ясно +14.8 +7.8 63 +15 +15 1021.8 1011.5 +21.3
19 20.04 СВ 2 15 км ясно +14.0 +7.0 63 +14 +14 1022.3 1012.0
20 20.04 С 3 15 км ясно +13.6 +7.0 64 +13 +13 1022.2 1011.9
21 20.04 С 1 15 км ясно +12.5 +6.6 67 +13 +13 1022.0 1011.6
22 20.04 штиль 0 15 км ясно +8.6 +5.9 83 +8 +8 1022.3 1011.8
23 20.04 З 1 15 км ясно +8.4 +5.9 84 +8 +8 1022.4 1011.9
00 21.04 штиль 0 15 км ясно +7.5 +6.0 90 +7 +7 1022.4 1011.8
01 21.04 ЮЗ 2 15 км ясно +9.3 +6.6 83 +8 +8 1022.3 1011.8
02 21.04 штиль 0 15 км ясно +5.5 +4.1 91 +4 +4 1022.7 1012.1
03 21.04 ЮЗ 2 15 км ясно +8.1 +5.6 84 +6 +6 1022.4 1011.8
04 21.04 Ю 2 15 км ясно +11.4 +7.6 77 +10 +10 1022.2 1011.8
05 21.04 Ю 3 15 км ясно +11.7 +7.8 77 +10 +11 1022.7 1012.3
06 21.04 Ю 2 20 км ясно +13.1 +8.5 74 +12 +16 1022.6 1012.5 +4.7
07 21.04 Ю 2 20 км ясно +16.0 +9.8 67 +16 +23 1022.7 1012.7
08 21.04 Ю 5 20 км ясно +17.3 +9.9 62 +17 +22 1022.8 1012.8
09 21.04 Ю 4 20 км ясно +19.3 +10.3 56 +20 +30 1022.5 1012.6
10 21.04 ЮЗ 2 20 км ясно +20.2 +7.6 44 +22 +38 комфорт 1022.2 1012.3
11 21.04 З 2 20 км ясно +21.6 +7.9 41 +23 +39 комфорт 1021.4 1011.6
12 21.04 С 2 20 км ясно +22.5 +9.6 44 +24 +38 комфорт 1020.9 1011.1
13 21.04 СЗ 2 20 км ясно +23.3 +5.7 32 +24 +35 комфорт 1020.2 1010.4
14 21.04 ЮЗ 2 20 км ясно +23.4 +6.9 35 +24 +32 комфорт 1019.7 1009.8
15 21.04 ЮЗ 1 20 км ясно +23.5 +7.3 35 +24 +29 комфорт 1019.1 1009.3
16 21.04 СВ 2 20 км ясно +22.0 +10.9 49 +24 +26 комфорт 1018.6 1008.8
17 21.04 СВ 2 20 км ясно +20.4 +10.5 53 +23 +23 комфорт 1018.4 1008.5
18 21.04 В 2 20 км ясно +17.1 +9.4 60 +17 +17 1018.8 1008.7 +24.3
19 21.04 СВ 2 20 км ясно +14.4 +9.3 71 +14 +14 1018.9 1008.6
20 21.04 СВ 1 20 км ясно +10.3 +8.2 87 +10 +10 1018.7 1008.3
21 21.04 СВ 1 20 км ясно +9.2 +7.4 88 +9 +9 1018.5 1008.0
22 21.04 СВ 1 20 км ясно +7.8 +6.8 93 +7 +7 1018.4 1007.9
23 21.04 штиль 0 15 км ясно +7.1 +6.4 95 +6 +6 1018.5 1008.0
00 22.04 ЮЗ 1 15 км ясно +6.8 +6.1 95 +6 +6 1018.1 1007.5
01 22.04 штиль 0 15 км ясно +5.9 +4.9 93 +5 +5 1017.9 1007.4
02 22.04 СВ 1 15 км ясно +5.9 +5.2 95 +5 +5 1018.0 1007.4
03 22.04 В 1 15 км ясно +4.7 +3.7 93 +3 +3 1017.8 1007.1
04 22.04 СВ 1 20 км ясно +4.6 +3.9 95 +3 +3 1018.2 1007.5
05 22.04 В 1 20 км ясно +8.4 +6.7 89 +8 +9 1018.3 1007.8
06 22.04 штиль 0 20 км ясно +13.9 +9.7 76 +14 +19 1017.8 1007.5 +4.0
07 22.04 штиль 0 20 км ясно +18.6 +10.2 58 +19 +29 1017.5 1007.4
08 22.04 ЮЗ 1 20 км ясно +20.0 +10.5 54 +23 +35 комфорт 1017.6 1007.6
09 22.04 ЮЗ 1 20 км ясно +21.4 +8.7 44 +23 +39 комфорт 1017.4 1007.4
10 22.04 СЗ 1 20 км ясно +22.9 +8.4 39 +24 +43 комфорт 1017.0 1007.1
11 22.04 З 1 20 км ясно +24.0 +6.2 32 +24 +43 комфорт 1016.4 1006.4
12 22.04 З 2 20 км ясно +25.0 +6.6 31 +25 +39 комфорт 1015.8 1005.9
13 22.04 штиль 0 20 км ясно +25.8 +7.2 31 +26 +41 жарко 1015.1 1005.3
14 22.04 штиль 0 20 км ясно +26.0 +5.6 27 +25 +36 комфорт 1014.5 1004.7
15 22.04 В 2 20 км ясно +25.1 +10.5 40 +26 +30 жарко 1014.2 1004.4
16 22.04 СВ 2 20 км ясно +24.1 +12.9 50 +26 +28 жарко 1013.9 1004.0
17 22.04 СВ 2 20 км ясно +21.8 +14.7 64 +25 +25 комфорт 1013.9 1003.9
18 22.04 СВ 1 20 км ясно +17.5 +12.1 71 +19 +19 1014.3 1004.4 +26.4
19 22.04 СВ 2 20 км ясно +15.4 +9.3 67 +15 +15 1014.7 1004.7
20 22.04 СВ 2 15 км ясно +12.7 +8.7 77 +12 +12 1014.9 1004.8
21 22.04 штиль 0 15 км ясно +10.8 +8.0 83 +10 +10 1015.0 1004.8
22 22.04 штиль 0 10 км ясно +8.6 +7.4 92 +8 +8 1015.2 1005.0
23 22.04 СВ 1 10 км ясно +8.5 +6.8 89 +8 +8 1015.1 1004.9
00 23.04 штиль 0 10 км ясно +8.5 +7.3 92 +8 +8 1014.7 1004.5
01 23.04 СВ 1 10 км ясно +8.4 +6.7 89 +8 +8 1015.0 1004.5
02 23.04 СВ 1 10 км ясно +6.9 +5.9 93 +6 +6 1015.5 1005.0
04 23.04 СВ 1 10 км ясно +6.5 +5.1 91 +5 +5 1015.4 1005.1
05 23.04 штиль 0 10 км ясно +10.5 +8.4 87 +10 +12 1015.4 1005.2
06 23.04 Ю 3 20 км 1/0
[Ci fib]
+18.1 +8.8 55 +18 +22 1015.8 1005.7 +6.2
07 23.04 Ю 2 20 км 1/0
[Ci fib]
+19.2 +9.2 52 +21 +28 комфорт 1015.8 1005.7
08 23.04 Ю 1 20 км 1/0
[Ac trans]
+21.8 +11.1 51 +24 +36 комфорт 1015.9 1005.9
09 23.04 Ю 2 20 км 1/1 1200 м
[Cu hum]
+23.0 +10.1 44 +25 +38 комфорт 1015.9 1005.9
10 23.04 Ю 2 20 км 1/1 1200 м
[Cu hum]
+24.8 +10.4 40 +26 +40 жарко 1015.6 1005.7
11 23.04 СЗ 2 20 км 1/1 1200 м
[Cu hum]
+26.2 +10.0 36 +27 +41 жарко 1015.2 1005.3
12 23.04 Ю 1 20 км 1/1 1200 м
[Cu hum]
+27.2 +11.1 37 +28 +43 жарко 1014.7 1004.9
13 23.04 СЗ 2 20 км 1/1 1200 м
[Cu hum]
+27.6 +10.3 34 +28 +39 жарко 1014.1 1004.3
14 23.04 С 4 20 км 1/1 1200 м
[Cu hum]
+27.5 +8.8 31 +28 +32 жарко 1013.7 1004.0
15 23.04 СВ 3 20 км 1/1 1200 м
[Cu hum]
+26.7 +11.1 38 +28 +31 жарко 1013.5 1003.7
16 23.04 СВ 2 20 км 3/1 1200 м
[Cu hum Ci fib]
+25.2 +15.2 54 +28 +29 жарко 1013.3 1003.5
17 23.04 СВ 2 20 км 4/0
[Ci fib]
+23.6 +14.9 58 +26 +27 жарко 1013.1 1003.2
18 23.04 СВ 1 20 км 4/0
[Ci fib]
+20.1 +12.8 63 +23 +23 комфорт 1013.7 1003.7 +28.3
19 23.04 штиль 0 20 км 4/0
[Ci fib]
+16.9 +11.9 72 +17 +17 1014.0 1003.9
20 23.04 штиль 0 20 км 4/0
[Ci fib]
+14.5 +11.0 80 +14 +14 1014.0 1003.8
21 23.04 СВ 2 20 км 4/0
[Ci fib]
+15.4 +11.3 77 +15 +15 1014.0 1003.8
22 23.04 С 1 20 км 4/0
[Ci fib]
+13.7 +10.4 80 +14 +14 1014.1 1003.9
23 23.04 С 1 20 км 4/0
[Ci fib]
+12.5 +9.7 83 +13 +13 1014.1 1003.8
00 24.04 С 1 20 км ясно +13.0 +9.9 81 +13 +13 1014.2 1003.9
01 24.04 СВ 1 20 км ясно +14.0 +10.2 78 +14 +14 1014.3 1004.0
02 24.04 ЮЗ 2 20 км ясно +15.6 +10.4 71 +16 +16 1014.0 1003.9
03 24.04 Ю 3 20 км ясно +18.4 +10.2 59 +19 +19 1013.8 1003.7
04 24.04 С 1 20 км 3/0
[Ci fib]
+12.7 +9.1 79 +13 +13 1014.4 1004.1
05 24.04 штиль 0 20 км 3/0
[Ci fib]
+14.4 +10.2 76 +14 +16 1014.5 1004.3
06 24.04 ЮВ 1 15 км 5/0
[Ci fib]
+21.1 +11.7 55 +23 +27 комфорт 1014.7 1004.7 +10.2
07 24.04 Ю 3 20 км 4/1 1000 м
[Cu med, cong Ci fib]
+22.1 +10.4 47 +24 +29 комфорт 1015.4 1005.4
08 24.04 ЮЗ 3 20 км 5/1 1000 м
[Cu hum Ci fib]
+22.2 +13.2 57 +25 +33 комфорт 1015.9 1006.0
09 24.04 СЗ 1 20 км 5/4 800 м
[Cu Sc Ac trans Ci fib]
+24.4 +11.7 45 +26 +35 жарко 1015.6 1005.7

 

Местоположение метеостанции Vrsac (Сербия): широта 45.15 долгота 21.32 высота над уровнем моря 85 м.

В архиве по умолчанию представлена погода в Vrsac за последнюю неделю. Архивные данные за месяц целиком и за предыдущие месяцы, начиная с января 2011 года, Вы можете получить, выбрав интересующий диапазон дат из раскрывающегося списка и нажав кнопку "Ввод!".


*Определитесь, кто Вы:
робот инопланетянин человек

Внимание! Время в таблицах - всемирное. Для получения местного времени необходимо прибавить поправку, которая в Vrsac равна 1 ч.

Смотрите также архив погоды в соседних городах и на ближайших метеорологических станциях:

Погода в Banatski Karlovac (Сербия) (25 км)
Погода в Banloc (Румыния) (30 км)
Погода в Oravita (Румыния) (31 км)
Погода в Veliko Gradiste (Сербия) (47 км)
Погода в Resita (Румыния) (50 км)
Погода в Moldova Veche (Румыния) (54 км)
Погода в Semenic (Румыния) (57 км)
Погода в Bozovici (Румыния) (59 км)
Погода в Timisoara (Румыния) (69 км)
Погода в Zrenjanin (Сербия) (75 км)

Пояснения к столбцам:

Ветер - указаны скорость ветра в м/с - средняя за 10 мин, порывы в срок и между сроками (в фигурных скобках) и направление, откуда дует ветер: С - северный, СВ - северо-восточный, В - восточный, ЮВ - юго-восточный, Ю - южный, ЮЗ - юго-западный, З - западный, СЗ - северо-западный.
Видимость - горизонтальная дальность видимости в метрах или километрах. При видимости от 1 до 10 км при отсутствии осадков обычно наблюдается дымка, при ухудшении видимости до 1 км и менее - туман. В сухую погоду видимость может ухудшаться дымом, пылью или мглою.
Явления - указаны атмосферные явления, наблюдавшиеся в срок или в последний час перед сроком; фигурными скобками обозначены явления, наблюдавшиеся между сроками (за 1-3 часа до срока); квадратными скобками обозначены град или гололедные отложения с указанием их диаметра в мм.
Облачность - указаны через наклонную черту общая и нижняя облачность в баллах и высота нижней границы облаков в метрах; квадратными скобками обозначены формы облаков: Ci - перистые, Cs - перисто-слоистые, Cc - перисто-кучевые, Ac - высококучевые, As - высокослоистые, Sc - слоисто-кучевые, Ns - слоисто-дождевые, Cu - кучевые, Cb - кучево-дождевые. Подробнее классификацию облаков см. в Атласе облаков (PDF).
T - Температура воздуха - температура, измеренная на высоте 2 м над землей.
Td - Температура точки росы - температура, при понижении до которой содержащийся в воздухе водяной пар достигнет насыщения.
f - Относительная влажность воздуха - влажноcть воздуха, измеренная на высоте 2 м над землей.
Te - Эффективная температура - температура, которую ощущает одетый по сезону человек в тени. Характеристика душности погоды. При расчете учитывается влияние влажности воздуха и скорости ветра на теплоощущения человека.
Tes - Эффективная температура на солнце - температура, которую ощущает человек, с поправкой на солнечный нагрев. Характеристика знойности погоды. Зависит от высоты солнца над горизонтом, облачности и скорости ветра. Ночью, в пасмурную погоду, а также при ветре 12 м/с и более поправка равна нулю.
P - Атмосферное давление - приведенное к уровню моря атмосферное давление.
Po - Атмосферное давление - измеренное на уровне метеостанции атмосферное давление.
Tmin - Минимальная температура - минимум температуры воздуха на высоте 2 м над землей.
Tmax - Максимальная температура - максимум температуры воздуха на высоте 2 м над землей.
R - Количество осадков - Количество выпавших осадков за период времени, мм. При наведении курсора мыши на число - период времени, за который выпало указанное количество осадков.
R24 - Количество осадков - Количество выпавших осадков за 24 часа, мм.
S - Снежный покров - Высота снежного покрова, см. При наведении курсора мыши на число - состояние снежного покрова и степень покрытия местности в баллах.